Weather History for EGOS - October, 2013

Change the Weather History Date:

Friday, October 25, 2013

  Actual Average Record
Temperature  
Mean Temperature 58 °F -  
Max Temperature 64 °F 48 °F 64 °F (2013)
Min Temperature 53 °F 38 °F 26 °F (1997)
Degree Days  
Heating Degree Days 6    
Growing Degree Days 8 (Base 50)    
Moisture  
Dew Point 53 °F    
Average Humidity 85    
Maximum Humidity 98    
Minimum Humidity 60    
Precipitation  
Precipitation 0.03 in - - ()
Sea Level Pressure  
Sea Level Pressure 29.53 in    
Wind  
Wind Speed 11 mph ()    
Max Wind Speed 20 mph    
Max Gust Speed 31 mph    
Visibility 6.1 miles    
Events Rain    
Averages and records for this station are not official NWS values.
T = Trace of Precipitation, MM = Missing Value Source: Averaged Metar Reports

Daily Weather History Graph

Daily Weather History Graph

Search for Another Location

Airport or City:

Trip Planner

Search our weather history database for the weather conditions in past years. The results will help you decide how hot, cold, wet, or windy it might be!

Date:

Astronomy

Oct. 25, 2013 Rise Set
Actual Time 7:54 AM BST 5:53 PM BST
Civil Twilight 7:19 AM BST 6:29 PM BST
Nautical Twilight 6:39 AM BST 7:09 PM BST
Astronomical Twilight 5:59 AM BST 7:48 PM BST
Moon 10:46 PM BST (10/25) 1:40 PM BST (10/25)
Length of Visible Light 11h 09m
Length of Day
9h 58m
Waning Gibbous, 64% of the Moon is Illuminated
Oct 25
Waning Gibbous
Oct 27
Last Quarter
Nov 3
New
Nov 10
First Quarter
Nov 17
Full

Hourly Weather History & Observations

Time (BST) Temp. Dew Point Humidity Pressure Visibility Wind Dir Wind Speed Gust Speed Precip Events Conditions
12:50 AM 55.4 °F 51.8 °F 88% 29.74 in 6.2 mi ESE 10.4 mph - N/A   Overcast
1:00 AM 55 °F 51 °F 82% 29.76 in 7 mi ESE 10.4 mph - -   Overcast
1:50 AM 53.6 °F 51.8 °F 94% 29.68 in 6.2 mi ESE 13.8 mph - N/A   Mostly Cloudy
2:50 AM 53.6 °F 51.8 °F 94% 29.65 in 5.6 mi East 10.4 mph - N/A Rain Light Rain Showers
3:50 AM 53.6 °F 51.8 °F 94% 29.59 in 4.3 mi ESE 10.4 mph - N/A Rain Light Rain
4:00 AM 54 °F 52 °F 91% 29.62 in 4 mi ESE 10.4 mph - - Rain Light Rain
4:50 AM 55.4 °F 53.6 °F 94% 29.56 in 3.7 mi ESE 10.4 mph - N/A   Light Drizzle
5:50 AM 55.4 °F 53.6 °F 94% 29.53 in - East 12.7 mph - N/A Rain Rain
6:50 AM 55.4 °F 53.6 °F 94% 29.50 in 3.7 mi ESE 12.7 mph - N/A Rain Light Rain
7:00 AM 54 °F 54 °F 98% 29.51 in 4 mi ESE 12.7 mph - - Rain Light Rain
7:50 AM 55.4 °F 53.6 °F 94% 29.47 in 3.7 mi ESE 10.4 mph - N/A Rain Light Rain
7:58 AM 55.4 °F 53.6 °F 94% 29.47 in 3.7 mi ESE 10.4 mph - N/A Rain Light Rain
8:27 AM 55.4 °F 53.6 °F 94% 29.47 in 6.2 mi ESE 10.4 mph - N/A   Mostly Cloudy
8:50 AM 57.2 °F 55.4 °F 94% 29.50 in 6.2 mi SE 8.1 mph - N/A   Mostly Cloudy
9:50 AM 59.0 °F 55.4 °F 88% 29.50 in 6.2 mi SSE 11.5 mph - N/A   Mostly Cloudy
10:00 AM 58 °F 56 °F 90% 29.52 in 22 mi SSE 11.5 mph - -   Partly Cloudy
10:03 AM 59.0 °F 55.4 °F 88% 29.50 in 6.2 mi SSE 12.7 mph - N/A   Scattered Clouds
10:50 AM 60.8 °F 53.6 °F 77% 29.50 in 6.2 mi South 12.7 mph - N/A   Scattered Clouds
11:50 AM 62.6 °F 53.6 °F 72% 29.53 in 6.2 mi South 17.3 mph - N/A   Partly Cloudy
12:50 PM 64.4 °F 53.6 °F 68% 29.50 in 6.2 mi SSW 15.0 mph 26.5 mph N/A   Partly Cloudy
1:00 PM 64 °F 54 °F 60% 29.52 in 22 mi SSW 15.0 mph - -   Partly Cloudy
1:50 PM 64.4 °F 53.6 °F 68% 29.50 in 6.2 mi South 17.3 mph - N/A   Partly Cloudy
2:50 PM 62.6 °F 53.6 °F 72% 29.50 in 6.2 mi South 16.1 mph - N/A   Mostly Cloudy
3:50 PM 62.6 °F 53.6 °F 72% 29.47 in 6.2 mi South 18.4 mph - N/A   Mostly Cloudy
4:00 PM 62 °F 53 °F 65% 29.49 in 12 mi South 18.4 mph - -   Mostly Cloudy
4:50 PM 59.0 °F 55.4 °F 88% 29.47 in 6.2 mi South 13.8 mph - N/A   Scattered Clouds
5:50 PM 59.0 °F 53.6 °F 82% 29.47 in 6.2 mi South 17.3 mph - N/A Rain Light Rain Showers
6:50 PM 57.2 °F 53.6 °F 88% 29.47 in 6.2 mi SSW 19.6 mph - N/A Rain Light Rain
7:00 PM 58 °F 53 °F 79% 29.50 in 8 mi SSW 19.6 mph - - Rain Light Rain
7:50 PM 57.2 °F 53.6 °F 88% 29.50 in 6.2 mi SSW 19.6 mph 31.1 mph N/A Rain Light Rain Showers
8:50 PM 57.2 °F 51.8 °F 82% 29.53 in 6.2 mi SSW 17.3 mph - N/A   Unknown
9:50 PM 55.4 °F 51.8 °F 88% 29.53 in 6.2 mi SSW 11.5 mph - N/A   Unknown
10:00 PM 56 °F 51 °F 80% 29.55 in 12 mi SSW 11.5 mph - -  
10:50 PM 55.4 °F 51.8 °F 88% 29.56 in 6.2 mi SSW 9.2 mph - N/A   Scattered Clouds
11:50 PM 53.6 °F 51.8 °F 94% 29.56 in 6.2 mi SE 9.2 mph - N/A   Partly Cloudy